Starlink 32340

operational
NORAD ID: 61008 Int'l Des: 2024-158 Owner: SPXS Country: US Constellation: starlink
LEOCIRCULAR

Über Starlink 32340

Beschreibung wird geladen...

Live-Position

3D-Globus wird geladen...

Nächste Überflüge

Höhenverlauf

Altitude vs Time

uPlot chart will show altitude changes over time

Zweizeiliger Elementsatz

1 61008U 24158U 25303.28984459 -.00002209 00000-0 -62471-4 0 9996
2 61008 53.1611 311.3536 0001201 87.5715 272.5423 15.30208385 65611
Epoch: 30. Okt. 2025 • Age: 26 hours

Aktueller Status

Höhe 485.2 km
Geschwindigkeit 7.62 km/s
Subsatellitenpunkt -30.86°S, 22.06°W
Startdatum 5. Sept. 2024
Alter 1.1 years
Typ internet

Technische Details

Klassifizierung Payload
Masse 730.00 kg
Trockenmasse 700.00 kg
Gesamtmasse 730.00 kg
Länge 0.30 m
Durchmesser 4.10 m
Spannweite 29.00 m
Form Box + pan
Hersteller SPXS
Bus-Typ Starlink V2M
Phasenstatus In Orbit
Besitzer/Staat SPXS/US

Große Konstellationen

Loading constellations...